Time,TemperatureF,DewpointF,PressureIn,WindDirection,WindDirectionDegrees,WindSpeedMPH,WindSpeedGustMPH,Humidity,HourlyPrecipIn,Conditions,Clouds,dailyrainin,SolarRadiationWatts/m^2,SoftwareType,DateUTC
2013-07-14 05:11:00,62.0,56.0,30.08,North,-999,-999.0,-999.0,82,-99.99,,,-99.99,1420.000000,,2013-07-14 10:11:00,
2013-07-14 05:22:00,62.0,56.0,30.08,North,-999,-999.0,-999.0,82,-99.99,,,-99.99,1420.000000,,2013-07-14 10:22:00,
2013-07-14 05:32:00,62.0,56.0,30.08,North,-999,-999.0,-999.0,82,-99.99,,,-99.99,1420.000000,,2013-07-14 10:32:00,
2013-07-14 05:42:00,62.0,57.0,30.08,North,-999,-999.0,-999.0,83,-99.99,,,-99.99,1420.000000,,2013-07-14 10:42:00,
2013-07-14 05:53:00,62.0,57.0,30.08,North,-999,-999.0,-999.0,83,-99.99,,,-99.99,1420.000000,,2013-07-14 10:53:00,
2013-07-14 06:02:00,62.0,57.0,30.08,North,-999,-999.0,-999.0,83,-99.99,,,-99.99,1420.000000,,2013-07-14 11:02:00,
2013-07-14 06:11:00,62.0,57.0,30.11,North,-999,-999.0,-999.0,83,-99.99,,,-99.99,1420.000000,,2013-07-14 11:11:00,
2013-07-14 06:22:00,63.0,57.0,30.11,North,-999,-999.0,-999.0,82,-99.99,,,-99.99,1420.000000,,2013-07-14 11:22:00,
2013-07-14 06:32:00,64.0,58.0,30.11,North,-999,-999.0,-999.0,81,-99.99,,,-99.99,1420.000000,,2013-07-14 11:32:00,
2013-07-14 06:43:00,64.0,58.0,30.11,North,-999,-999.0,-999.0,80,-99.99,,,-99.99,1420.000000,,2013-07-14 11:43:00,
2013-07-14 07:11:00,71.0,60.0,30.11,North,-999,-999.0,-999.0,69,-99.99,,,-99.99,1420.000000,,2013-07-14 12:11:00,
2013-07-14 07:22:00,71.0,60.0,30.11,North,-999,-999.0,-999.0,69,-99.99,,,-99.99,1420.000000,,2013-07-14 12:22:00,
2013-07-14 10:12:00,83.0,62.0,30.11,North,-999,-999.0,-999.0,50,-99.99,,,-99.99,1420.000000,,2013-07-14 15:12:00,
2013-07-14 10:22:00,83.0,62.0,30.11,North,-999,-999.0,-999.0,50,-99.99,,,-99.99,1420.000000,,2013-07-14 15:22:00,
2013-07-14 10:32:00,83.0,63.0,30.14,North,-999,-999.0,-999.0,51,-99.99,,,-99.99,1420.000000,,2013-07-14 15:32:00,
2013-07-14 10:42:00,82.0,63.0,30.14,North,-999,-999.0,-999.0,52,-99.99,,,-99.99,1420.000000,,2013-07-14 15:42:00,
2013-07-14 10:53:00,83.0,64.0,30.14,North,-999,-999.0,-999.0,53,-99.99,,,-99.99,1420.000000,,2013-07-14 15:53:00,
2013-07-14 11:01:00,83.0,64.0,30.14,North,-999,-999.0,-999.0,53,-99.99,,,-99.99,1420.000000,,2013-07-14 16:01:00,
2013-07-14 11:11:00,83.0,64.0,30.14,North,-999,-999.0,-999.0,52,-99.99,,,-99.99,1420.000000,,2013-07-14 16:11:00,
2013-07-14 11:22:00,84.0,66.0,30.14,North,-999,-999.0,-999.0,54,-99.99,,,-99.99,1420.000000,,2013-07-14 16:22:00,
2013-07-14 11:32:00,84.0,64.0,30.14,North,-999,-999.0,-999.0,52,-99.99,,,-99.99,1420.000000,,2013-07-14 16:32:00,
2013-07-14 11:43:00,84.0,64.0,30.14,North,-999,-999.0,-999.0,52,-99.99,,,-99.99,1420.000000,,2013-07-14 16:43:00,
2013-07-14 11:53:00,84.0,64.0,30.14,North,-999,-999.0,-999.0,52,-99.99,,,-99.99,1420.000000,,2013-07-14 16:53:00,
2013-07-14 12:02:00,86.0,65.0,30.14,North,-999,-999.0,-999.0,49,-99.99,,,-99.99,1420.000000,,2013-07-14 17:02:00,
2013-07-14 12:11:00,86.0,65.0,30.14,North,-999,-999.0,-999.0,50,-99.99,,,-99.99,1420.000000,,2013-07-14 17:11:00,
2013-07-14 12:22:00,87.0,65.0,30.14,North,-999,-999.0,-999.0,49,-99.99,,,-99.99,1420.000000,,2013-07-14 17:22:00,
2013-07-14 12:32:00,87.0,65.0,30.14,North,-999,-999.0,-999.0,48,-99.99,,,-99.99,1420.000000,,2013-07-14 17:32:00,
2013-07-14 12:43:00,87.0,65.0,30.14,North,-999,-999.0,-999.0,48,-99.99,,,-99.99,1420.000000,,2013-07-14 17:43:00,
2013-07-14 12:53:00,87.0,65.0,30.14,North,-999,-999.0,-999.0,48,-99.99,,,-99.99,1420.000000,,2013-07-14 17:53:00,
2013-07-14 13:01:00,88.0,65.0,30.14,North,-999,-999.0,-999.0,46,-99.99,,,-99.99,1420.000000,,2013-07-14 18:01:00,
2013-07-14 13:11:00,88.0,64.0,30.11,North,-999,-999.0,-999.0,45,-99.99,,,-99.99,1420.000000,,2013-07-14 18:11:00,
2013-07-14 13:22:00,88.0,65.0,30.11,North,-999,-999.0,-999.0,46,-99.99,,,-99.99,1420.000000,,2013-07-14 18:22:00,
2013-07-14 13:32:00,89.0,64.0,30.11,North,-999,-999.0,-999.0,44,-99.99,,,-99.99,1420.000000,,2013-07-14 18:32:00,
2013-07-14 13:52:00,89.0,61.0,30.11,North,-999,-999.0,-999.0,40,-99.99,,,-99.99,1420.000000,,2013-07-14 18:52:00,
2013-07-14 14:01:00,89.0,61.0,30.11,North,-999,-999.0,-999.0,40,-99.99,,,-99.99,1420.000000,,2013-07-14 19:01:00,
2013-07-14 14:22:00,89.0,62.0,30.11,North,-999,-999.0,-999.0,41,-99.99,,,-99.99,1420.000000,,2013-07-14 19:22:00,
2013-07-14 14:32:00,89.0,62.0,30.11,North,-999,-999.0,-999.0,41,-99.99,,,-99.99,1420.000000,,2013-07-14 19:32:00,
2013-07-14 14:43:00,90.0,63.0,30.11,North,-999,-999.0,-999.0,41,-99.99,,,-99.99,1420.000000,,2013-07-14 19:43:00,
2013-07-14 14:52:00,91.0,64.0,30.08,North,-999,-999.0,-999.0,41,-99.99,,,-99.99,1420.000000,,2013-07-14 19:52:00,
2013-07-14 15:02:00,91.0,63.0,30.08,North,-999,-999.0,-999.0,40,-99.99,,,-99.99,1420.000000,,2013-07-14 20:02:00,
2013-07-14 15:11:00,91.0,63.0,30.08,North,-999,-999.0,-999.0,40,-99.99,,,-99.99,1420.000000,,2013-07-14 20:11:00,
2013-07-14 15:22:00,90.0,64.0,30.08,North,-999,-999.0,-999.0,42,-99.99,,,-99.99,1420.000000,,2013-07-14 20:22:00,
2013-07-14 15:32:00,90.0,64.0,30.08,North,-999,-999.0,-999.0,42,-99.99,,,-99.99,1420.000000,,2013-07-14 20:32:00,
2013-07-14 15:43:00,90.0,64.0,30.08,North,-999,-999.0,-999.0,42,-99.99,,,-99.99,1420.000000,,2013-07-14 20:43:00,
2013-07-14 15:53:00,90.0,64.0,30.08,North,-999,-999.0,-999.0,42,-99.99,,,-99.99,1420.000000,,2013-07-14 20:53:00,
2013-07-14 16:01:00,90.0,64.0,30.08,North,-999,-999.0,-999.0,42,-99.99,,,-99.99,1420.000000,,2013-07-14 21:01:00,
2013-07-14 17:32:00,92.0,62.0,30.08,North,-999,-999.0,-999.0,37,-99.99,,,-99.99,1420.000000,,2013-07-14 22:32:00,
2013-07-14 17:42:00,92.0,63.0,30.08,North,-999,-999.0,-999.0,38,-99.99,,,-99.99,1420.000000,,2013-07-14 22:42:00,
2013-07-14 17:53:00,91.0,61.0,30.08,North,-999,-999.0,-999.0,37,-99.99,,,-99.99,1420.000000,,2013-07-14 22:53:00,
2013-07-14 18:01:00,90.0,60.0,30.08,North,-999,-999.0,-999.0,37,-99.99,,,-99.99,1420.000000,,2013-07-14 23:01:00,
2013-07-14 18:11:00,90.0,60.0,30.08,North,-999,-999.0,-999.0,37,-99.99,,,-99.99,1420.000000,,2013-07-14 23:11:00,
2013-07-14 18:22:00,89.0,60.0,30.08,North,-999,-999.0,-999.0,38,-99.99,,,-99.99,1420.000000,,2013-07-14 23:22:00,
2013-07-14 18:32:00,89.0,60.0,30.08,North,-999,-999.0,-999.0,38,-99.99,,,-99.99,1420.000000,,2013-07-14 23:32:00,
2013-07-14 18:42:00,89.0,60.0,30.08,North,-999,-999.0,-999.0,38,-99.99,,,-99.99,1420.000000,,2013-07-14 23:42:00,
2013-07-14 18:53:00,89.0,60.0,30.08,North,-999,-999.0,-999.0,38,-99.99,,,-99.99,1420.000000,,2013-07-14 23:53:00,
2013-07-14 19:02:00,87.0,60.0,30.11,North,-999,-999.0,-999.0,41,-99.99,,,-99.99,1420.000000,,2013-07-15 00:02:00,
2013-07-14 19:11:00,87.0,60.0,30.11,North,-999,-999.0,-999.0,40,-99.99,,,-99.99,1420.000000,,2013-07-15 00:11:00,
2013-07-14 19:22:00,86.0,60.0,30.11,North,-999,-999.0,-999.0,41,-99.99,,,-99.99,1420.000000,,2013-07-15 00:22:00,
2013-07-14 19:32:00,86.0,60.0,30.11,North,-999,-999.0,-999.0,42,-99.99,,,-99.99,1420.000000,,2013-07-15 00:32:00,
2013-07-14 19:43:00,84.0,58.0,30.11,North,-999,-999.0,-999.0,42,-99.99,,,-99.99,1420.000000,,2013-07-15 00:43:00,
2013-07-14 19:53:00,84.0,60.0,30.11,North,-999,-999.0,-999.0,44,-99.99,,,-99.99,1420.000000,,2013-07-15 00:53:00,
2013-07-14 20:01:00,84.0,60.0,30.11,North,-999,-999.0,-999.0,44,-99.99,,,-99.99,1420.000000,,2013-07-15 01:01:00,
2013-07-14 20:11:00,82.0,59.0,30.11,North,-999,-999.0,-999.0,45,-99.99,,,-99.99,1420.000000,,2013-07-15 01:11:00,
2013-07-14 20:22:00,80.0,61.0,30.11,North,-999,-999.0,-999.0,52,-99.99,,,-99.99,1420.000000,,2013-07-15 01:22:00,
2013-07-14 20:32:00,80.0,61.0,30.11,North,-999,-999.0,-999.0,52,-99.99,,,-99.99,1420.000000,,2013-07-15 01:32:00,
2013-07-14 20:43:00,77.0,61.0,30.11,North,-999,-999.0,-999.0,57,-99.99,,,-99.99,1420.000000,,2013-07-15 01:43:00,
2013-07-14 20:53:00,76.0,60.0,30.11,North,-999,-999.0,-999.0,57,-99.99,,,-99.99,1420.000000,,2013-07-15 01:53:00,
2013-07-14 21:02:00,76.0,60.0,30.11,North,-999,-999.0,-999.0,58,-99.99,,,-99.99,1420.000000,,2013-07-15 02:02:00,
2013-07-14 21:11:00,76.0,60.0,30.11,North,-999,-999.0,-999.0,58,-99.99,,,-99.99,1420.000000,,2013-07-15 02:11:00,
2013-07-14 21:22:00,75.0,60.0,30.11,North,-999,-999.0,-999.0,60,-99.99,,,-99.99,1420.000000,,2013-07-15 02:22:00,
2013-07-14 21:32:00,75.0,60.0,30.11,North,-999,-999.0,-999.0,60,-99.99,,,-99.99,1420.000000,,2013-07-15 02:32:00,
2013-07-14 21:42:00,75.0,60.0,30.11,North,-999,-999.0,-999.0,60,-99.99,,,-99.99,1420.000000,,2013-07-15 02:42:00,
2013-07-14 21:53:00,73.0,60.0,30.14,North,-999,-999.0,-999.0,64,-99.99,,,-99.99,1420.000000,,2013-07-15 02:53:00,
2013-07-14 22:02:00,73.0,61.0,30.14,North,-999,-999.0,-999.0,65,-99.99,,,-99.99,1420.000000,,2013-07-15 03:02:00,
2013-07-14 22:11:00,72.0,60.0,30.14,North,-999,-999.0,-999.0,65,-99.99,,,-99.99,1420.000000,,2013-07-15 03:11:00,
2013-07-14 22:22:00,72.0,60.0,30.14,North,-999,-999.0,-999.0,66,-99.99,,,-99.99,1420.000000,,2013-07-15 03:22:00,
2013-07-14 22:32:00,72.0,60.0,30.14,North,-999,-999.0,-999.0,67,-99.99,,,-99.99,1420.000000,,2013-07-15 03:32:00,
2013-07-14 22:43:00,72.0,60.0,30.14,North,-999,-999.0,-999.0,67,-99.99,,,-99.99,1420.000000,,2013-07-15 03:43:00,
2013-07-14 22:53:00,71.0,60.0,30.14,North,-999,-999.0,-999.0,68,-99.99,,,-99.99,1420.000000,,2013-07-15 03:53:00,
2013-07-14 23:01:00,71.0,60.0,30.14,North,-999,-999.0,-999.0,69,-99.99,,,-99.99,1420.000000,,2013-07-15 04:01:00,
2013-07-14 23:11:00,71.0,60.0,30.17,North,-999,-999.0,-999.0,68,-99.99,,,-99.99,1420.000000,,2013-07-15 04:11:00,
2013-07-14 23:22:00,71.0,60.0,30.17,North,-999,-999.0,-999.0,68,-99.99,,,-99.99,1420.000000,,2013-07-15 04:22:00,
2013-07-14 23:32:00,70.0,60.0,30.17,North,-999,-999.0,-999.0,71,-99.99,,,-99.99,1420.000000,,2013-07-15 04:32:00,
2013-07-14 23:42:00,70.0,60.0,30.17,North,-999,-999.0,-999.0,71,-99.99,,,-99.99,1420.000000,,2013-07-15 04:42:00,
2013-07-14 23:53:00,70.0,60.0,30.17,North,-999,-999.0,-999.0,71,-99.99,,,-99.99,1420.000000,,2013-07-15 04:53:00,